Flag for U.S.A. Weather past 2 weeks in Mountain View, California, U.S.A.

Now
66 °F

Sunny.


Feels Like: 66 °F
Forecast: 54 / 68 °F
Wind: 13 mph from West

Location: Moffett Field

Current Time: Apr 21, 2015 at 5:07:32 PM

Latest Report: Apr 21, 2015 at 3:56 PM


Visibility: 10 mi

Pressure: 29.86 "Hg

Humidity: 52%

Dew point: 48 °F

Location of Mountain ViewLocation

Historic Weather in Mountain View — Graph

°F

Mountain View temperature yesterday

Maximum temperature yesterday: 65 °F (at 3:56 PM)
Minimum temperature yesterday: 54 °F (at 11:56 PM)
Average temperature yesterday: 59 °F

Past Weeks' High & Low Weather Summary

 TemperatureHumidityPressure
High80 °F (Apr 16, 3:56 PM)94% (Apr 7, 8:01 AM)30.36 "Hg (Apr 7, 8:01 AM)
Low46 °F (Apr 9, 3:56 AM)17% (Apr 16, 3:56 PM)29.81 "Hg (Apr 7, 4:56 AM)
Average59 °F59%30.04 "Hg
* Reported Apr 6 3:56 PM — Apr 21 3:56 PM, Mountain View, Weather by CustomWeather, © 2015

Note: Actual official high and low records may vary slightly from our data, if they occured in-between our weather recording intervals... More about our weather records

Advertising

Mountain View weather history for previous 24 hours

 ConditionsComfort  
Time TempWeatherWind HumidityBarometerVisibility
3:56 PM
Tue, Apr 21
66 °FSunny.13 mph52%29.86 "Hg10 mi
2:56 PM65 °FScattered clouds.12 mph54%29.87 "Hg10 mi
1:56 PM66 °FPassing clouds.12 mph54%29.88 "Hg10 mi
12:56 PM64 °FPartly sunny.8 mph56%29.90 "Hg10 mi
11:56 AM63 °FOvercast.3 mph58%29.92 "Hg10 mi
10:56 AM60 °FOvercast.3 mph62%29.93 "Hg10 mi
9:56 AM58 °FOvercast.No wind67%29.92 "Hg10 mi
8:56 AM57 °FOvercast.3 mph69%29.91 "Hg10 mi
7:56 AM56 °FOvercast.3 mph72%29.90 "Hg10 mi
6:56 AM55 °FOvercast.5 mph72%29.89 "Hg10 mi
5:56 AM55 °FOvercast.6 mph72%29.88 "Hg10 mi
4:56 AM55 °FOvercast.3 mph72%29.87 "Hg10 mi
3:56 AM56 °FOvercast.No wind75%29.87 "Hg10 mi
2:56 AM56 °FOvercast.No wind77%29.87 "Hg10 mi
1:56 AM56 °FOvercast.5 mph77%29.87 "Hg10 mi
12:56 AM56 °FOvercast.No wind81%29.88 "Hg10 mi
11:56 PM
Mon, Apr 20
54 °FPassing clouds.No wind80%29.88 "Hg10 mi
10:56 PM55 °FClear.8 mph80%29.88 "Hg10 mi
9:56 PM56 °FClear.6 mph77%29.88 "Hg10 mi
8:56 PM57 °FClear.7 mph78%29.87 "Hg10 mi
7:56 PM58 °FSunny.13 mph75%29.86 "Hg10 mi
6:56 PM60 °FSunny.14 mph69%29.85 "Hg10 mi
5:56 PM62 °FSunny.17 mph65%29.85 "Hg10 mi
Weather by CustomWeather, © 2015

See weather overviewHow to use our weather pages